Precipitable_Water
1.46 1.46 1.44 1.40 1.38 1.33 1.27 1.26 1.21 1.19 1.17 1.17 1.17 1.14 1.11 1.05 0.99 0.90 0.82 0.76 0.77 0.73 0.73 0.71 0.68 0.66 0.49 0.32 0.26 0.45 0.47 0.45 0.45 0.44 0.36 0.33 0.33 0.31 0.24 0.26 0.28 0.25 0.27 0.28 0.30 0.32 0.32
1.36 1.38 1.37 1.34 1.30 1.27 1.21 1.18 1.14 1.11 1.10 1.11 1.08 1.02 0.98 0.92 0.86 0.80 0.74 0.70 0.67 0.65 0.61 0.62 0.60 0.60 0.42 0.23 0.38 0.45 0.44 0.43 0.42 0.41 0.36 0.38 0.33 0.34 0.28 0.28 0.27 0.29 0.28 0.28 0.30 0.31 0.33
1.26 1.24 1.23 1.20 1.17 1.16 1.12 1.09 1.08 1.06 1.01 1.02 1.03 0.97 0.91 0.87 0.78 0.71 0.65 0.59 0.59 0.58 0.56 0.55 0.55 0.49 0.34 0.22 0.38 0.42 0.41 0.36 0.40 0.42 0.39 0.44 0.42 0.34 0.33 0.28 0.36 0.33 0.26 0.29 0.29 0.29 0.28
1.26 1.24 1.17 1.14 1.14 1.09 1.06 1.00 0.99 0.96 0.94 0.96 0.95 0.91 0.87 0.81 0.69 0.64 0.61 0.59 0.60 0.61 0.56 0.53 0.54 0.46 0.24 0.38 0.42 0.37 0.41 0.34 0.45 0.49 0.46 0.52 0.53 0.42 0.36 0.38 0.35 0.29 0.29 0.20 0.29 0.30 0.31
1.18 1.20 1.21 1.19 1.16 1.13 1.06 0.99 0.95 0.92 0.96 0.96 0.92 0.84 0.78 0.73 0.65 0.65 0.65 0.64 0.64 0.63 0.63 0.62 0.47 0.38 0.21 0.39 0.35 0.47 0.53 0.43 0.49 0.51 0.46 0.55 0.51 0.39 0.38 0.30 0.26 0.28 0.20 0.23 0.25 0.32 0.31
1.15 1.13 1.13 1.11 1.10 1.08 1.06 1.00 0.96 0.89 0.83 0.84 0.79 0.72 0.64 0.59 0.62 0.65 0.65 0.64 0.62 0.59 0.59 0.59 0.52 0.32 0.28 0.24 0.42 0.49 0.56 0.54 0.45 0.42 0.42 0.45 0.41 0.33 0.32 0.28 0.17 0.21 0.23 0.25 0.25 0.29 0.29
1.01 1.05 1.03 1.01 1.00 0.96 0.90 0.84 0.79 0.76 0.77 0.77 0.71 0.65 0.58 0.55 0.57 0.58 0.53 0.44 0.32 0.31 0.42 0.24 0.25 0.24 0.26 0.37 0.42 0.41 0.52 0.47 0.43 0.38 0.28 0.39 0.31 0.24 0.26 0.32 0.33 0.30 0.28 0.25 0.28 0.30 0.28
0.95 0.92 0.95 0.95 0.92 0.88 0.85 0.81 0.78 0.76 0.77 0.74 0.69 0.61 0.56 0.54 0.58 0.58 0.50 0.32 0.37 0.42 0.23 0.28 0.27 0.28 0.32 0.34 0.21 0.33 0.46 0.34 0.33 0.26 0.35 0.33 0.27 0.35 0.40 0.39 0.35 0.31 0.26 0.24 0.27 0.31 0.31
0.95 0.95 0.93 0.87 0.85 0.83 0.84 0.82 0.76 0.75 0.77 0.73 0.69 0.62 0.58 0.55 0.55 0.51 0.41 0.37 0.58 0.53 0.23 0.23 0.30 0.28 0.28 0.32 0.22 0.21 0.30 0.35 0.31 0.28 0.30 0.27 0.28 0.33 0.34 0.31 0.26 0.27 0.25 0.23 0.24 0.30 0.32
0.89 0.92 0.92 0.92 0.89 0.86 0.83 0.83 0.80 0.77 0.72 0.73 0.69 0.62 0.57 0.55 0.43 0.47 0.40 0.55 0.55 0.53 0.18 0.17 0.25 0.37 0.44 0.40 0.26 0.41 0.35 0.26 0.27 0.23 0.28 0.27 0.32 0.30 0.28 0.25 0.27 0.22 0.27 0.28 0.27 0.27 0.20
0.76 0.84 0.84 0.85 0.86 0.85 0.86 0.87 0.85 0.76 0.70 0.68 0.66 0.63 0.59 0.55 0.48 0.42 0.52 0.59 0.59 0.43 0.15 0.22 0.30 0.52 0.50 0.34 0.42 0.43 0.50 0.37 0.25 0.25 0.27 0.23 0.27 0.26 0.24 0.24 0.30 0.25 0.32 0.31 0.31 0.27 0.25
0.70 0.69 0.70 0.74 0.75 0.81 0.77 0.79 0.80 0.77 0.74 0.70 0.67 0.62 0.56 0.48 0.46 0.56 0.62 0.62 0.50 0.16 0.13 0.16 0.33 0.34 0.34 0.37 0.40 0.44 0.36 0.42 0.35 0.29 0.29 0.26 0.35 0.32 0.29 0.32 0.34 0.38 0.33 0.32 0.31 0.27 0.17
0.73 0.73 0.72 0.70 0.70 0.70 0.71 0.75 0.74 0.78 0.75 0.72 0.70 0.65 0.58 0.52 0.36 0.56 0.60 0.48 0.15 0.13 0.15 0.16 0.23 0.31 0.32 0.29 0.33 0.36 0.29 0.29 0.24 0.20 0.20 0.25 0.25 0.31 0.34 0.28 0.34 0.34 0.30 0.21 0.18 0.17 0.15
0.73 0.71 0.72 0.74 0.71 0.67 0.66 0.67 0.71 0.77 0.74 0.67 0.63 0.63 0.60 0.50 0.52 0.54 0.54 0.29 0.13 0.13 0.14 0.22 0.23 0.29 0.24 0.29 0.29 0.31 0.30 0.25 0.33 0.30 0.25 0.20 0.18 0.26 0.34 0.30 0.26 0.30 0.30 0.21 0.15 0.16 0.18
0.71 0.72 0.70 0.70 0.71 0.67 0.66 0.66 0.65 0.66 0.67 0.68 0.67 0.60 0.55 0.57 0.56 0.52 0.40 0.18 0.16 0.18 0.19 0.18 0.16 0.16 0.19 0.23 0.28 0.30 0.29 0.27 0.33 0.33 0.24 0.23 0.22 0.32 0.33 0.36 0.35 0.31 0.26 0.34 0.27 0.28 0.22
0.70 0.71 0.70 0.69 0.68 0.69 0.68 0.68 0.66 0.65 0.65 0.65 0.52 0.47 0.46 0.56 0.56 0.43 0.31 0.16 0.16 0.20 0.23 0.22 0.12 0.14 0.12 0.17 0.17 0.21 0.24 0.27 0.25 0.29 0.32 0.26 0.21 0.29 0.31 0.37 0.37 0.34 0.38 0.27 0.30 0.20 0.16
0.63 0.68 0.67 0.68 0.68 0.65 0.69 0.71 0.68 0.66 0.66 0.65 0.52 0.37 0.45 0.57 0.52 0.33 0.20 0.19 0.20 0.26 0.24 0.18 0.16 0.16 0.17 0.16 0.19 0.18 0.20 0.24 0.33 0.33 0.35 0.34 0.30 0.27 0.34 0.29 0.27 0.32 0.30 0.32 0.33 0.31 0.22
0.62 0.62 0.63 0.66 0.68 0.70 0.68 0.68 0.65 0.66 0.66 0.61 0.45 0.29 0.50 0.58 0.28 0.26 0.18 0.21 0.25 0.22 0.25 0.21 0.22 0.20 0.16 0.19 0.18 0.19 0.20 0.27 0.35 0.31 0.23 0.26 0.26 0.23 0.27 0.38 0.42 0.37 0.33 0.34 0.28 0.24 0.29
0.55 0.58 0.61 0.63 0.68 0.72 0.69 0.66 0.66 0.67 0.66 0.55 0.37 0.36 0.55 0.52 0.20 0.18 0.20 0.21 0.23 0.21 0.20 0.19 0.19 0.21 0.20 0.17 0.13 0.16 0.17 0.20 0.20 0.22 0.23 0.28 0.21 0.16 0.20 0.30 0.40 0.38 0.40 0.36 0.35 0.33 0.24
0.48 0.53 0.58 0.59 0.64 0.67 0.68 0.70 0.66 0.66 0.67 0.58 0.39 0.27 0.38 0.41 0.31 0.20 0.17 0.16 0.16 0.23 0.21 0.25 0.23 0.24 0.21 0.18 0.22 0.19 0.21 0.28 0.34 0.35 0.40 0.41 0.31 0.26 0.20 0.24 0.31 0.29 0.32 0.33 0.32 0.26 0.23
0.46 0.46 0.49 0.53 0.58 0.62 0.65 0.66 0.68 0.69 0.69 0.57 0.42 0.32 0.35 0.22 0.23 0.24 0.23 0.19 0.14 0.14 0.23 0.25 0.19 0.19 0.21 0.18 0.20 0.18 0.24 0.25 0.26 0.28 0.31 0.33 0.22 0.28 0.30 0.31 0.32 0.31 0.30 0.32 0.29 0.28 0.24
0.44 0.45 0.44 0.49 0.53 0.60 0.62 0.65 0.66 0.67 0.69 0.53 0.36 0.34 0.36 0.29 0.30 0.26 0.24 0.18 0.17 0.21 0.23 0.21 0.19 0.21 0.22 0.17 0.17 0.15 0.20 0.21 0.21 0.27 0.27 0.33 0.23 0.26 0.22 0.28 0.29 0.27 0.30 0.32 0.32 0.32 0.30
0.44 0.43 0.44 0.45 0.54 0.56 0.60 0.63 0.67 0.68 0.67 0.50 0.51 0.48 0.37 0.32 0.30 0.26 0.21 0.19 0.20 0.26 0.26 0.28 0.26 0.25 0.24 0.26 0.30 0.32 0.33 0.32 0.29 0.26 0.26 0.30 0.27 0.24 0.16 0.27 0.28 0.22 0.22 0.29 0.30 0.32 0.32
0.45 0.46 0.46 0.46 0.50 0.57 0.57 0.63 0.65 0.67 0.67 0.54 0.52 0.46 0.35 0.26 0.30 0.24 0.24 0.24 0.22 0.25 0.23 0.27 0.31 0.28 0.30 0.39 0.38 0.35 0.34 0.31 0.31 0.28 0.31 0.27 0.29 0.29 0.20 0.24 0.15 0.21 0.28 0.30 0.29 0.30 0.33
0.43 0.44 0.46 0.46 0.48 0.51 0.54 0.57 0.61 0.62 0.67 0.55 0.56 0.45 0.35 0.26 0.28 0.28 0.27 0.26 0.27 0.30 0.27 0.27 0.27 0.30 0.35 0.33 0.27 0.21 0.20 0.22 0.20 0.21 0.22 0.26 0.25 0.23 0.20 0.20 0.22 0.22 0.25 0.27 0.26 0.25 0.30
0.44 0.44 0.43 0.45 0.47 0.48 0.48 0.52 0.57 0.63 0.63 0.58 0.54 0.54 0.41 0.30 0.26 0.30 0.27 0.28 0.24 0.24 0.25 0.25 0.33 0.38 0.37 0.30 0.25 0.18 0.16 0.21 0.21 0.24 0.33 0.32 0.30 0.24 0.23 0.18 0.14 0.19 0.28 0.34 0.32 0.20 0.31
0.40 0.42 0.43 0.43 0.45 0.47 0.48 0.52 0.56 0.60 0.62 0.57 0.52 0.56 0.45 0.31 0.32 0.30 0.24 0.23 0.27 0.26 0.23 0.26 0.31 0.34 0.40 0.27 0.22 0.18 0.16 0.23 0.17 0.17 0.20 0.26 0.27 0.22 0.22 0.20 0.21 0.29 0.31 0.35 0.22 0.21 0.27
0.44 0.42 0.41 0.43 0.43 0.45 0.47 0.49 0.56 0.58 0.59 0.57 0.50 0.56 0.44 0.32 0.33 0.34 0.34 0.29 0.29 0.28 0.22 0.26 0.25 0.28 0.34 0.27 0.23 0.20 0.19 0.20 0.20 0.21 0.23 0.24 0.26 0.25 0.26 0.20 0.19 0.36 0.35 0.26 0.27 0.29 0.28
0.46 0.49 0.44 0.41 0.42 0.43 0.48 0.51 0.54 0.56 0.58 0.58 0.45 0.53 0.53 0.39 0.33 0.39 0.36 0.37 0.35 0.36 0.36 0.35 0.31 0.34 0.40 0.32 0.32 0.31 0.24 0.26 0.24 0.17 0.30 0.23 0.30 0.28 0.30 0.27 0.37 0.38 0.35 0.37 0.33 0.30 0.31
Wind_Speed
37 37 36 36 36 35 34 34 33 33 32 31 30 29 29 29 29 28 28 28 27 27 27 26 26 26 24 22 24 22 20 20 20 20 20 19 17 16 17 16 17 17 17 17 18 19 19
36 36 35 35 35 35 34 34 33 33 32 31 30 29 28 28 28 28 28 27 27 27 27 26 26 25 23 22 20 20 20 20 19 19 18 18 17 18 17 18 18 17 19 20 20 23 21
38 37 36 36 35 34 34 33 32 32 31 31 30 30 29 29 29 28 28 27 26 25 25 25 24 23 22 24 20 21 21 21 20 20 20 19 18 18 17 18 19 19 21 21 21 19 19
40 39 38 38 37 36 35 34 33 33 32 32 32 31 30 30 29 28 27 27 26 26 25 24 23 22 22 22 22 22 21 22 20 19 19 19 18 18 18 18 19 20 20 20 18 19 20
41 41 41 39 39 39 38 37 36 36 35 35 33 32 31 30 29 29 28 27 27 27 25 25 24 23 23 21 18 17 16 15 15 16 18 18 19 18 18 18 20 20 21 21 22 21 21
43 42 41 41 39 39 40 39 38 37 36 34 33 32 31 30 30 29 29 29 29 29 27 26 25 23 22 20 19 18 18 18 17 17 19 20 20 20 18 19 22 20 20 22 23 22 27
45 44 43 42 41 40 39 39 38 37 36 35 34 32 31 31 30 30 29 29 29 27 26 26 24 24 24 23 22 20 20 20 20 20 20 21 22 23 24 22 20 20 24 26 26 27 26
45 45 44 43 42 42 40 39 38 37 37 36 34 33 32 32 30 30 29 28 28 29 30 29 30 29 28 25 25 23 22 22 21 20 19 20 24 25 22 22 24 26 27 27 26 22 25
47 46 44 43 43 41 42 40 39 38 37 36 36 35 33 32 31 31 30 29 28 27 29 28 27 28 27 26 27 26 25 23 22 22 22 23 21 18 20 21 23 24 24 24 24 24 24
49 48 47 46 44 43 41 41 40 38 38 37 35 34 33 31 31 30 29 29 28 26 25 27 25 25 23 24 25 25 26 26 26 26 22 24 23 21 20 21 20 22 23 24 23 23 21
51 49 49 48 46 44 42 41 40 39 37 36 35 34 32 31 30 28 27 25 23 24 22 21 22 21 19 19 19 18 19 20 20 18 18 18 17 17 20 22 20 22 20 23 24 24 23
50 50 50 48 47 46 45 44 41 40 38 37 36 34 32 31 30 28 27 25 23 20 25 22 21 21 19 20 18 17 17 17 17 17 19 21 21 21 21 21 20 19 19 20 21 22 23
50 50 48 47 46 45 45 44 43 41 38 37 37 35 33 30 29 28 25 23 22 24 23 22 23 22 22 20 20 19 19 19 18 18 20 20 23 23 23 22 20 20 18 19 18 17 20
49 48 47 46 46 44 43 42 42 41 39 37 35 33 32 31 29 27 26 24 25 26 27 22 20 18 18 18 20 19 19 20 20 17 18 19 20 19 17 20 17 18 18 17 18 17 18
48 48 47 47 46 46 44 42 40 39 38 36 34 33 32 30 30 28 27 27 29 28 26 24 24 23 23 22 22 21 23 22 22 22 21 20 22 19 18 17 17 16 18 17 20 19 21
48 46 46 46 46 45 44 43 41 39 36 35 32 32 32 30 29 28 28 29 28 26 24 23 23 21 22 21 21 20 21 20 19 20 21 23 26 23 21 20 19 19 16 16 15 17 19
50 48 47 46 45 45 43 43 41 39 37 35 32 31 30 32 29 29 30 30 27 27 24 23 23 22 21 21 21 21 22 21 19 18 17 18 20 21 20 21 22 19 20 19 18 18 19
49 50 48 47 45 45 44 43 42 41 38 36 34 32 32 32 29 31 34 29 27 26 25 27 25 25 24 23 23 23 24 22 20 20 23 22 21 23 24 21 20 21 21 21 21 19 20
45 48 48 48 45 44 46 44 43 41 40 35 33 32 33 33 32 32 32 32 31 27 26 26 26 26 25 25 24 25 26 25 26 22 21 20 21 23 21 20 20 20 23 23 22 22 28
42 43 45 47 46 46 46 44 45 44 42 37 32 31 32 35 32 34 31 34 31 29 31 26 25 24 24 23 24 23 21 20 19 20 20 20 21 24 26 24 20 23 24 24 24 23 25
43 42 44 46 48 46 47 46 44 42 44 39 35 33 33 31 36 31 31 29 33 31 28 26 28 29 24 23 22 25 23 22 23 23 22 22 27 26 28 28 27 28 28 25 26 28 24
42 42 41 44 46 45 45 48 46 46 44 39 35 34 33 31 33 33 32 31 34 27 28 27 29 25 27 29 28 25 25 25 24 21 21 20 23 23 29 27 27 30 29 28 27 27 30
40 41 42 43 45 45 44 45 46 45 46 37 38 35 31 29 30 31 34 33 30 29 29 29 27 27 28 27 27 28 29 29 29 28 26 24 23 22 27 22 21 24 30 28 29 28 27
39 39 40 41 44 43 44 44 45 44 45 37 38 34 31 31 32 33 30 31 33 32 31 27 26 29 29 26 27 28 29 31 31 32 30 27 24 23 24 21 24 23 20 20 22 23 21
33 36 36 38 41 42 42 44 44 45 42 42 36 35 30 29 31 32 31 30 28 28 29 31 32 32 30 29 26 26 27 28 32 34 33 31 28 24 22 22 25 26 21 22 20 21 21
28 30 32 35 38 40 42 43 42 43 42 37 38 36 32 28 31 29 29 29 28 28 28 29 29 29 29 27 27 27 24 21 20 20 20 25 28 25 21 20 21 18 16 15 15 21 18
25 28 30 32 35 37 39 40 41 41 40 39 36 35 29 28 28 27 27 27 26 25 26 25 24 22 25 24 25 25 27 23 24 23 17 17 18 25 24 22 22 19 16 15 15 17 14
19 22 27 30 32 34 37 39 40 40 41 37 34 36 33 29 29 27 28 26 24 25 27 22 20 20 19 21 21 21 21 22 21 20 18 19 16 16 19 20 22 16 14 17 14 13 12
21 21 25 28 31 32 33 36 38 39 39 37 31 33 33 31 28 29 33 31 29 26 20 21 21 16 8 13 14 14 16 17 19 20 19 20 19 17 18 17 15 14 14 14 14 12 12
Wind_Direction
250 251 253 254 255 255 257 258 259 260 261 262 264 265 268 271 274 275 277 279 282 284 285 287 289 292 290 286 280 278 276 276 275 277 280 280 277 276 274 275 275 269 271 270 270 274 274
248 250 251 254 254 254 256 256 257 258 260 260 262 265 267 270 273 275 277 278 281 283 284 286 288 288 286 282 279 276 275 275 275 275 278 277 274 274 274 273 273 273 271 273 272 274 274
248 250 252 253 252 252 254 256 256 257 258 259 261 265 267 270 272 273 275 277 279 283 284 286 288 286 282 278 277 276 274 272 272 275 274 274 276 273 273 274 274 276 276 277 274 273 272
249 250 251 252 251 252 253 255 256 256 258 260 262 264 267 269 270 271 273 275 277 280 282 285 285 284 279 280 280 278 273 270 269 269 267 272 276 274 272 272 278 276 275 275 271 277 279
250 250 252 252 251 252 253 255 257 257 258 260 260 262 265 267 268 269 271 273 276 277 279 282 283 282 280 278 277 274 268 268 268 269 263 271 274 274 274 274 277 277 273 272 278 284 285
250 250 251 249 252 252 253 255 256 256 256 257 259 261 263 265 267 268 270 272 275 277 277 278 279 278 274 274 272 272 268 266 269 268 270 271 273 272 273 269 273 273 273 273 275 281 286
250 251 251 250 251 252 253 253 253 253 254 255 257 260 262 264 265 267 270 271 274 274 274 269 272 273 274 274 272 271 269 268 270 271 268 269 267 263 264 264 271 273 276 277 278 281 281
250 249 250 250 251 251 251 251 252 252 252 253 256 258 260 262 263 266 268 268 270 272 276 270 270 271 270 271 272 266 266 266 268 267 266 269 267 265 269 266 269 272 276 277 281 279 283
249 248 248 249 250 250 250 250 250 250 251 253 255 257 260 261 263 265 266 266 267 274 273 273 270 270 269 263 263 264 262 266 268 265 262 263 269 269 262 266 268 270 270 274 277 285 281
249 248 248 249 249 249 248 248 248 250 250 252 253 256 258 260 261 261 262 266 266 268 273 272 270 270 267 265 267 264 262 263 265 263 262 267 267 263 262 267 263 270 268 271 277 285 282
248 248 248 248 248 248 247 247 247 248 249 250 252 254 256 257 258 257 261 261 259 266 271 268 268 267 266 262 269 269 262 262 259 258 258 264 262 263 262 266 264 271 269 273 276 277 282
248 249 247 247 247 246 246 246 246 247 249 249 251 251 253 254 254 255 257 257 257 262 261 266 265 266 268 264 268 265 263 266 261 259 265 267 270 269 268 270 264 272 273 278 279 275 274
246 246 246 246 246 246 245 245 245 244 247 248 250 249 249 250 251 252 250 249 255 252 267 266 266 263 264 263 264 263 262 261 262 264 264 270 266 270 268 269 266 265 269 276 274 269 274
245 244 244 244 244 244 244 244 244 243 246 247 247 244 247 247 245 249 244 247 250 258 256 264 264 262 262 261 263 260 261 262 260 265 267 267 271 264 265 261 265 259 258 262 271 269 277
244 243 243 242 243 243 243 241 241 241 243 243 241 246 246 246 245 245 242 248 251 253 257 259 261 263 264 264 265 264 263 262 258 256 264 267 268 268 264 264 261 262 261 266 269 271 275
243 242 241 241 241 241 240 238 237 238 238 238 242 243 244 241 240 239 241 250 251 251 256 259 253 258 259 263 259 259 261 263 265 266 271 270 270 264 264 263 265 259 261 264 267 270 270
240 241 240 240 240 239 236 234 234 235 235 235 240 242 243 235 235 236 242 248 251 250 253 256 255 256 256 257 258 259 259 263 262 268 270 271 267 268 264 258 256 259 260 262 265 264 273
239 239 240 238 238 236 233 233 235 233 231 233 238 242 239 229 236 240 242 244 250 249 253 252 254 255 254 255 257 259 258 258 263 268 275 267 265 266 265 268 269 264 261 253 258 264 268
240 239 237 235 235 234 232 233 231 229 228 232 237 239 236 231 237 241 243 246 247 250 249 251 252 252 252 253 260 257 260 265 269 268 267 267 264 267 268 264 263 262 259 258 264 269 265
240 238 236 234 234 233 232 231 230 229 226 229 234 234 234 234 241 238 240 242 246 247 248 251 252 255 252 254 253 260 261 265 266 267 264 262 261 261 263 267 268 264 263 260 259 266 270
240 238 238 235 234 233 231 229 227 224 222 227 232 235 234 235 235 238 236 243 241 245 246 245 250 250 253 254 254 256 260 265 265 268 266 261 264 263 263 266 266 265 264 261 257 261 262
240 238 237 235 231 231 229 226 225 224 222 227 232 231 233 236 233 233 237 240 242 243 244 246 247 250 249 250 251 259 267 267 265 269 263 264 268 268 267 268 265 264 262 260 260 266 266
240 239 238 236 230 228 227 224 222 220 219 228 227 229 230 231 231 229 235 239 244 243 247 248 251 251 253 254 256 260 260 263 263 263 264 263 267 268 270 272 271 265 258 255 260 265 267
239 238 236 232 225 224 223 221 219 220 218 224 224 225 229 233 232 235 237 239 242 245 249 249 251 252 255 259 261 262 262 262 261 260 257 259 262 264 269 267 261 268 264 264 263 268 265
235 233 232 226 222 223 221 220 219 219 218 220 219 220 228 232 233 236 239 242 244 246 248 250 252 255 256 257 262 266 265 265 261 258 254 251 252 258 261 259 271 268 261 258 262 275 266
231 229 226 222 221 221 220 219 218 216 214 214 218 221 229 232 237 236 237 240 244 247 251 251 256 256 250 252 252 254 258 261 261 262 256 247 243 246 252 257 263 272 263 257 263 275 274
230 226 224 221 220 219 216 215 214 212 213 213 217 218 224 229 236 232 238 241 244 245 249 252 252 259 243 244 245 250 254 255 256 256 253 246 244 242 248 255 266 262 253 258 266 280 270
223 223 223 220 217 215 214 212 211 210 210 213 218 219 225 234 238 239 240 242 245 244 245 246 245 242 251 239 242 245 250 246 251 251 246 241 246 247 249 251 257 247 254 254 268 272 266
232 231 222 216 210 208 207 206 206 208 210 212 219 220 226 234 240 242 244 244 241 240 240 234 229 236 241 232 237 244 246 249 246 249 244 244 244 254 246 249 259 241 259 262 265 265 263